Startpagina
METAR-TAF:

METAR-TAF

Vliegvelden :

Nampa, Idaho, Verenigde Staten

breedte: 43-34-53N, lengte: 116-31-23W, hoogte: 773 m

Actueel weer

Dit bericht is 15 minuten geleden gemaakt, om 18:35 UTC
Wind 7 kt uit variabele richting, variërend tussen het westen en het noordnoordwesten
Temperatuur 14°C
Vochtigheid 51%
Druk 1015 hPa
Zicht: 16.1 km
Onbewolkt

METAR: KMAN 221835Z AUTO VRB07KT 260V330 10SM CLR 14/04 A2996 RMK A01

Tijdstip: 12:50 (18:50 UTC)


TAF: ontbreekt

Waarnemingen en weersverwachtingen van meer dan 4000 vliegvelden (METAR en TAF).

De beschikbare stations zijn de gele en rode punten op de kaart.

Ga met uw muis naar het station om de naam te zien.

Klik dan om waarnemingen en weersverwachtingen te zien.

kaart wijzigen: klik op de groene knoppen met een zwart kruis om in te zoomen, op de groene knop met een streepje om uit te zoomen of op de groene pijlen voor aangrenzende kaarten.


METAR-TAF: